"Sample Date","Sample Time","Sensor Name","Sample Value","Units","Flow Rate","Sample Interval","Sample Volume","Laser Status","Number Channels","Micron Size 0","Counts/Channel 0","Micron Size 1","Counts/Channel 1","Micron Size 2","Counts/Channel 2","Micron Size 3","Counts/Channel 3","Micron Size 4","Counts/Channel 4","Micron Size 5","Counts/Channel 5","Micron Size 6","Counts/Channel 6","Micron Size 7","Counts/Channel 7","Micron Size 8","Counts/Channel 8","Micron Size 9","Counts/Channel 9","Micron Size 10","Counts/Channel 10","Micron Size 11","Counts/Channel 11","Micron Size 12","Counts/Channel 12","Micron Size 13","Counts/Channel 13","Micron Size 14","Counts/Channel 14","Micron Size 15","Counts/Channel 15","Micron Size 16","Counts/Channel 16","Micron Size 17","Counts/Channel 17","Micron Size 18","Counts/Channel 18","Micron Size 19","Counts/Channel 19","Micron Size 20","Counts/Channel 20","Micron Size 21","Counts/Channel 21","Micron Size 22","Counts/Channel 22","Micron Size 23","Counts/Channel 23","Micron Size 24","Counts/Channel 24","Micron Size 25","Counts/Channel 25","Micron Size 26","Counts/Channel 26","Micron Size 27","Counts/Channel 27","Micron Size 28","Counts/Channel 28","Micron Size 29","Counts/Channel 29","Micron Size 30","Counts/Channel 30","Micron Size 31","Counts/Channel 31"
"07/03/06","23:00:02","AMMA06",75844.000,"cc",28345.014,6.00,2834.502,1,6,0.100,38369.000,0.200,27698.000,0.300,6480.000,0.500,1951.000,1.000,1346.000,5.000,0
"07/03/06","23:00:08","AMMA06",75855.000,"cc",28300.059,6.00,2830.006,1,6,0.100,38513.000,0.200,27637.000,0.300,6433.000,0.500,1963.000,1.000,1309.000,5.000,0
"07/03/06","23:00:14","AMMA06",75365.000,"cc",28311.318,6.00,2831.132,1,6,0.100,37848.000,0.200,27713.000,0.300,6630.000,0.500,1976.000,1.000,1197.000,5.000,1.000
"07/03/06","23:00:20","AMMA06",75392.000,"cc",28310.357,6.00,2831.036,1,6,0.100,37799.000,0.200,27812.000,0.300,6596.000,0.500,1907.000,1.000,1274.000,5.000,4.000
"07/03/06","23:00:26","AMMA06",75365.000,"cc",28324.424,6.00,2832.443,1,6,0.100,37968.000,0.200,27719.000,0.300,6537.000,0.500,1917.000,1.000,1223.000,5.000,1.000
"07/03/06","23:00:32","AMMA06",75807.000,"cc",28254.773,6.00,2825.478,1,6,0.100,38175.000,0.200,27845.000,0.300,6704.000,0.500,1804.000,1.000,1277.000,5.000,2.000
"07/03/06","23:00:38","AMMA06",75445.000,"cc",28310.336,6.00,2831.034,1,6,0.100,37753.000,0.200,27748.000,0.300,6688.000,0.500,1957.000,1.000,1298.000,5.000,1.000
"07/03/06","23:00:44","AMMA06",75387.000,"cc",28374.344,6.00,2837.435,1,6,0.100,37825.000,0.200,27702.000,0.300,6711.000,0.500,1874.000,1.000,1271.000,5.000,4.000
"07/03/06","23:00:50","AMMA06",75137.000,"cc",28300.898,6.00,2830.090,1,6,0.100,37415.000,0.200,27806.000,0.300,6679.000,0.500,1956.000,1.000,1281.000,5.000,0
"07/03/06","23:00:56","AMMA06",74757.000,"cc",28322.752,6.00,2832.275,1,6,0.100,37253.000,0.200,27724.000,0.300,6601.000,0.500,1902.000,1.000,1276.000,5.000,1.000
"07/03/06","23:01:02","AMMA06",75107.000,"cc",28312.607,6.00,2831.261,1,6,0.100,37449.000,0.200,27749.000,0.300,6680.000,0.500,1922.000,1.000,1305.000,5.000,2.000
"07/03/06","23:01:08","AMMA06",74537.000,"cc",28306.840,6.00,2830.684,1,6,0.100,37068.000,0.200,27735.000,0.300,6553.000,0.500,1847.000,1.000,1334.000,5.000,0
"07/03/06","23:01:14","AMMA06",75202.000,"cc",28277.695,6.00,2827.770,1,6,0.100,37385.000,0.200,28017.000,0.300,6632.000,0.500,1914.000,1.000,1253.000,5.000,1.000
"07/03/06","23:01:20","AMMA06",74802.000,"cc",28311.445,6.00,2831.145,1,6,0.100,37293.000,0.200,27784.000,0.300,6484.000,0.500,1981.000,1.000,1257.000,5.000,3.000
"07/03/06","23:01:26","AMMA06",75063.000,"cc",28339.022,6.00,2833.902,1,6,0.100,37433.000,0.200,27716.000,0.300,6612.000,0.500,1935.000,1.000,1365.000,5.000,2.000
"07/03/06","23:01:32","AMMA06",74968.000,"cc",28328.047,6.00,2832.805,1,6,0.100,37279.000,0.200,27852.000,0.300,6569.000,0.500,1914.000,1.000,1353.000,5.000,1.000
"07/03/06","23:01:38","AMMA06",75087.000,"cc",28308.199,6.00,2830.820,1,6,0.100,37332.000,0.200,27971.000,0.300,6499.000,0.500,1979.000,1.000,1304.000,5.000,2.000
"07/03/06","23:01:44","AMMA06",74973.000,"cc",28325.898,6.00,2832.590,1,6,0.100,37255.000,0.200,27852.000,0.300,6536.000,0.500,1946.000,1.000,1382.000,5.000,2.000
"07/03/06","23:01:50","AMMA06",75097.000,"cc",28293.533,6.00,2829.354,1,6,0.100,37316.000,0.200,27839.000,0.300,6800.000,0.500,1888.000,1.000,1253.000,5.000,1.000
"07/03/06","23:01:56","AMMA06",75024.000,"cc",28359.535,6.00,2835.954,1,6,0.100,37256.000,0.200,27875.000,0.300,6633.000,0.500,1905.000,1.000,1355.000,5.000,0
"07/03/06","23:02:02","AMMA06",74976.000,"cc",28301.553,6.00,2830.156,1,6,0.100,37388.000,0.200,27907.000,0.300,6443.000,0.500,1941.000,1.000,1297.000,5.000,0
"07/03/06","23:02:08","AMMA06",74907.000,"cc",28303.580,6.00,2830.358,1,6,0.100,37258.000,0.200,27880.000,0.300,6487.000,0.500,1988.000,1.000,1292.000,5.000,2.000
"07/03/06","23:02:14","AMMA06",74677.000,"cc",28321.742,6.00,2832.174,1,6,0.100,37492.000,0.200,27598.000,0.300,6502.000,0.500,1873.000,1.000,1209.000,5.000,3.000
"07/03/06","23:02:20","AMMA06",74917.000,"cc",28287.338,6.00,2828.734,1,6,0.100,37152.000,0.200,27966.000,0.300,6586.000,0.500,1916.000,1.000,1294.000,5.000,3.000
"07/03/06","23:02:26","AMMA06",75139.000,"cc",28364.453,6.00,2836.446,1,6,0.100,37538.000,0.200,27784.000,0.300,6603.000,0.500,1949.000,1.000,1265.000,5.000,0
"07/03/06","23:02:32","AMMA06",74842.000,"cc",28293.525,6.00,2829.353,1,6,0.100,37068.000,0.200,28063.000,0.300,6343.000,0.500,1977.000,1.000,1389.000,5.000,2.000
"07/03/06","23:02:38","AMMA06",74381.000,"cc",28319.164,6.00,2831.917,1,6,0.100,37011.000,0.200,27870.000,0.300,6445.000,0.500,1878.000,1.000,1175.000,5.000,2.000
"07/03/06","23:02:44","AMMA06",74400.000,"cc",28324.801,6.00,2832.480,1,6,0.100,37013.000,0.200,27608.000,0.300,6614.000,0.500,1939.000,1.000,1226.000,5.000,0
"07/03/06","23:02:50","AMMA06",73420.000,"cc",28303.951,6.00,2830.395,1,6,0.100,36369.000,0.200,27487.000,0.300,6412.000,0.500,1881.000,1.000,1269.000,5.000,2.000
"07/03/06","23:02:56","AMMA06",73893.000,"cc",28271.303,6.00,2827.130,1,6,0.100,36552.000,0.200,27625.000,0.300,6484.000,0.500,1989.000,1.000,1242.000,5.000,1.000
"07/03/06","23:03:02","AMMA06",74131.000,"cc",28319.236,6.00,2831.924,1,6,0.100,36712.000,0.200,27594.000,0.300,6672.000,0.500,1905.000,1.000,1246.000,5.000,2.000
"07/03/06","23:03:08","AMMA06",73727.000,"cc",28371.313,6.00,2837.131,1,6,0.100,36666.000,0.200,27438.000,0.300,6526.000,0.500,1878.000,1.000,1218.000,5.000,1.000
"07/03/06","23:03:14","AMMA06",73782.000,"cc",28312.406,6.00,2831.241,1,6,0.100,36493.000,0.200,27565.000,0.300,6473.000,0.500,1941.000,1.000,1309.000,5.000,1.000
"07/03/06","23:03:20","AMMA06",73495.000,"cc",28305.746,6.00,2830.575,1,6,0.100,36394.000,0.200,27429.000,0.300,6521.000,0.500,1886.000,1.000,1262.000,5.000,3.000
"07/03/06","23:03:26","AMMA06",73332.000,"cc",28289.268,6.00,2828.927,1,6,0.100,36286.000,0.200,27479.000,0.300,6296.000,0.500,2006.000,1.000,1264.000,5.000,1.000
"07/03/06","23:03:32","AMMA06",73757.000,"cc",28304.529,6.00,2830.453,1,6,0.100,36608.000,0.200,27542.000,0.300,6425.000,0.500,1915.000,1.000,1265.000,5.000,2.000
"07/03/06","23:03:38","AMMA06",73665.000,"cc",28318.668,6.00,2831.867,1,6,0.100,36444.000,0.200,27585.000,0.300,6448.000,0.500,1909.000,1.000,1278.000,5.000,1.000
"07/03/06","23:03:44","AMMA06",74081.000,"cc",28376.182,6.00,2837.618,1,6,0.100,37161.000,0.200,27381.000,0.300,6392.000,0.500,1916.000,1.000,1230.000,5.000,1.000
"07/03/06","23:03:50","AMMA06",73599.000,"cc",28302.330,6.00,2830.233,1,6,0.100,36615.000,0.200,27515.000,0.300,6315.000,0.500,1902.000,1.000,1250.000,5.000,2.000
"07/03/06","23:03:56","AMMA06",73755.000,"cc",28301.856,6.00,2830.186,1,6,0.100,36799.000,0.200,27399.000,0.300,6332.000,0.500,2000.000,1.000,1222.000,5.000,3.000
"07/03/06","23:04:02","AMMA06",73451.000,"cc",28294.617,6.00,2829.462,1,6,0.100,36598.000,0.200,27210.000,0.300,6322.000,0.500,1998.000,1.000,1321.000,5.000,2.000
"07/03/06","23:04:08","AMMA06",73383.000,"cc",28321.346,6.00,2832.135,1,6,0.100,36624.000,0.200,27264.000,0.300,6209.000,0.500,1947.000,1.000,1338.000,5.000,1.000
"07/03/06","23:04:14","AMMA06",73270.000,"cc",28324.830,6.00,2832.483,1,6,0.100,36810.000,0.200,27189.000,0.300,6123.000,0.500,1969.000,1.000,1178.000,5.000,1.000
"07/03/06","23:04:20","AMMA06",72982.000,"cc",28317.109,6.00,2831.711,1,6,0.100,36524.000,0.200,27067.000,0.300,6142.000,0.500,2010.000,1.000,1238.000,5.000,1.000
"07/03/06","23:04:26","AMMA06",72449.000,"cc",28344.529,6.00,2834.453,1,6,0.100,36545.000,0.200,26840.000,0.300,5909.000,0.500,1907.000,1.000,1245.000,5.000,3.000
"07/03/06","23:04:32","AMMA06",72746.000,"cc",28334.336,6.00,2833.434,1,6,0.100,36612.000,0.200,26890.000,0.300,6150.000,0.500,1889.000,1.000,1203.000,5.000,2.000
"07/03/06","23:04:38","AMMA06",72483.000,"cc",28275.660,6.00,2827.566,1,6,0.100,36252.000,0.200,26951.000,0.300,6135.000,0.500,1843.000,1.000,1301.000,5.000,1.000
"07/03/06","23:04:44","AMMA06",73197.000,"cc",28284.520,6.00,2828.452,1,6,0.100,36848.000,0.200,27027.000,0.300,6117.000,0.500,1961.000,1.000,1243.000,5.000,1.000
"07/03/06","23:04:50","AMMA06",72701.000,"cc",28311.414,6.00,2831.142,1,6,0.100,36465.000,0.200,26981.000,0.300,6102.000,0.500,1948.000,1.000,1204.000,5.000,1.000
"07/03/06","23:04:56","AMMA06",73277.000,"cc",28313.660,6.00,2831.366,1,6,0.100,36786.000,0.200,27053.000,0.300,6189.000,0.500,2030.000,1.000,1218.000,5.000,1.000
"07/03/06","23:05:02","AMMA06",72961.000,"cc",28307.838,6.00,2830.784,1,6,0.100,36651.000,0.200,27043.000,0.300,6115.000,0.500,1923.000,1.000,1229.000,5.000,0
"07/03/06","23:05:08","AMMA06",72593.000,"cc",28369.043,6.00,2836.905,1,6,0.100,36286.000,0.200,27079.000,0.300,5988.000,0.500,2015.000,1.000,1224.000,5.000,1.000
"07/03/06","23:05:14","AMMA06",72928.000,"cc",28280.301,6.00,2828.030,1,6,0.100,36593.000,0.200,27165.000,0.300,5921.000,0.500,2007.000,1.000,1240.000,5.000,2.000
"07/03/06","23:05:20","AMMA06",72849.000,"cc",28307.715,6.00,2830.772,1,6,0.100,36759.000,0.200,26871.000,0.300,6129.000,0.500,1881.000,1.000,1209.000,5.000,0
"07/03/06","23:05:26","AMMA06",73113.000,"cc",28298.731,6.00,2829.873,1,6,0.100,36803.000,0.200,26972.000,0.300,6109.000,0.500,1949.000,1.000,1280.000,5.000,0
"07/03/06","23:05:32","AMMA06",72803.000,"cc",28334.545,6.00,2833.455,1,6,0.100,36476.000,0.200,27219.000,0.300,6016.000,0.500,1880.000,1.000,1210.000,5.000,2.000
"07/03/06","23:05:38","AMMA06",72831.000,"cc",28298.949,6.00,2829.895,1,6,0.100,36584.000,0.200,27072.000,0.300,6044.000,0.500,1880.000,1.000,1250.000,5.000,1.000
"07/03/06","23:05:44","AMMA06",73088.000,"cc",28321.201,6.00,2832.120,1,6,0.100,36663.000,0.200,27101.000,0.300,6073.000,0.500,2012.000,1.000,1237.000,5.000,2.000
"07/03/06","23:05:50","AMMA06",72826.000,"cc",28342.621,6.00,2834.262,1,6,0.100,36609.000,0.200,26935.000,0.300,6080.000,0.500,1948.000,1.000,1252.000,5.000,2.000
"07/03/06","23:05:56","AMMA06",72409.000,"cc",28318.436,6.00,2831.844,1,6,0.100,36463.000,0.200,26711.000,0.300,6129.000,0.500,1915.000,1.000,1190.000,5.000,1.000
"07/03/06","23:06:02","AMMA06",73026.000,"cc",28331.426,6.00,2833.143,1,6,0.100,36841.000,0.200,26944.000,0.300,6018.000,0.500,2028.000,1.000,1193.000,5.000,2.000
"07/03/06","23:06:08","AMMA06",72450.000,"cc",28346.373,6.00,2834.638,1,6,0.100,36440.000,0.200,26918.000,0.300,5931.000,0.500,1887.000,1.000,1272.000,5.000,2.000
"07/03/06","23:06:14","AMMA06",72553.000,"cc",28301.391,6.00,2830.139,1,6,0.100,36305.000,0.200,27018.000,0.300,6137.000,0.500,1832.000,1.000,1258.000,5.000,3.000
"07/03/06","23:06:20","AMMA06",72851.000,"cc",28273.584,6.00,2827.359,1,6,0.100,36484.000,0.200,27190.000,0.300,6047.000,0.500,1932.000,1.000,1198.000,5.000,0
"07/03/06","23:06:26","AMMA06",72365.000,"cc",28312.127,6.00,2831.213,1,6,0.100,36352.000,0.200,26840.000,0.300,6050.000,0.500,1880.000,1.000,1243.000,5.000,0
"07/03/06","23:06:32","AMMA06",72425.000,"cc",28359.414,6.00,2835.942,1,6,0.100,36154.000,0.200,27128.000,0.300,6049.000,0.500,1916.000,1.000,1177.000,5.000,1.000
"07/03/06","23:06:38","AMMA06",72319.000,"cc",28317.477,6.00,2831.748,1,6,0.100,36337.000,0.200,26693.000,0.300,6089.000,0.500,1937.000,1.000,1261.000,5.000,2.000
"07/03/06","23:06:44","AMMA06",72531.000,"cc",28280.141,6.00,2828.014,1,6,0.100,36173.000,0.200,27310.000,0.300,5998.000,0.500,1838.000,1.000,1208.000,5.000,4.000
"07/03/06","23:06:50","AMMA06",72618.000,"cc",28280.828,6.00,2828.083,1,6,0.100,36203.000,0.200,26994.000,0.300,6209.000,0.500,1996.000,1.000,1216.000,5.000,0
"07/03/06","23:06:56","AMMA06",72954.000,"cc",28368.666,6.00,2836.867,1,6,0.100,36322.000,0.200,27286.000,0.300,6068.000,0.500,1962.000,1.000,1314.000,5.000,2.000
"07/03/06","23:07:02","AMMA06",72883.000,"cc",28313.873,6.00,2831.388,1,6,0.100,36265.000,0.200,27303.000,0.300,6151.000,0.500,1934.000,1.000,1230.000,5.000,0
"07/03/06","23:07:08","AMMA06",72858.000,"cc",28303.102,6.00,2830.310,1,6,0.100,36265.000,0.200,27371.000,0.300,6008.000,0.500,2011.000,1.000,1200.000,5.000,3.000
"07/03/06","23:07:14","AMMA06",72826.000,"cc",28266.611,6.00,2826.661,1,6,0.100,36186.000,0.200,27093.000,0.300,6277.000,0.500,1976.000,1.000,1294.000,5.000,0
"07/03/06","23:07:20","AMMA06",72629.000,"cc",28377.225,6.00,2837.723,1,6,0.100,35959.000,0.200,27261.000,0.300,6111.000,0.500,2037.000,1.000,1260.000,5.000,1.000
"07/03/06","23:07:26","AMMA06",72441.000,"cc",28314.678,6.00,2831.468,1,6,0.100,35973.000,0.200,27181.000,0.300,6141.000,0.500,1953.000,1.000,1191.000,5.000,2.000
"07/03/06","23:07:32","AMMA06",72894.000,"cc",28323.844,6.00,2832.385,1,6,0.100,35921.000,0.200,27383.000,0.300,6344.000,0.500,1968.000,1.000,1276.000,5.000,2.000
"07/03/06","23:07:38","AMMA06",72495.000,"cc",28282.930,6.00,2828.293,1,6,0.100,35886.000,0.200,27087.000,0.300,6263.000,0.500,2008.000,1.000,1247.000,5.000,4.000
"07/03/06","23:07:44","AMMA06",72865.000,"cc",28314.272,6.00,2831.427,1,6,0.100,36074.000,0.200,27491.000,0.300,6166.000,0.500,1873.000,1.000,1259.000,5.000,2.000
"07/03/06","23:07:50","AMMA06",72951.000,"cc",28304.850,6.00,2830.485,1,6,0.100,36221.000,0.200,27355.000,0.300,6182.000,0.500,1909.000,1.000,1283.000,5.000,1.000
"07/03/06","23:07:56","AMMA06",73204.000,"cc",28315.981,6.00,2831.598,1,6,0.100,35948.000,0.200,27725.000,0.300,6325.000,0.500,1917.000,1.000,1285.000,5.000,4.000
"07/03/06","23:08:02","AMMA06",73204.000,"cc",28324.438,6.00,2832.444,1,6,0.100,36320.000,0.200,27394.000,0.300,6297.000,0.500,1929.000,1.000,1260.000,5.000,4.000
"07/03/06","23:08:08","AMMA06",72923.000,"cc",28301.658,6.00,2830.166,1,6,0.100,36026.000,0.200,27567.000,0.300,6225.000,0.500,1884.000,1.000,1219.000,5.000,2.000
"07/03/06","23:08:14","AMMA06",73178.000,"cc",28316.949,6.00,2831.695,1,6,0.100,35969.000,0.200,27634.000,0.300,6410.000,0.500,1900.000,1.000,1263.000,5.000,2.000
"07/03/06","23:08:20","AMMA06",72831.000,"cc",28281.762,6.00,2828.176,1,6,0.100,35844.000,0.200,27379.000,0.300,6413.000,0.500,1941.000,1.000,1251.000,5.000,3.000
"07/03/06","23:08:26","AMMA06",72837.000,"cc",28328.709,6.00,2832.871,1,6,0.100,35998.000,0.200,27223.000,0.300,6467.000,0.500,1917.000,1.000,1232.000,5.000,0
"07/03/06","23:08:32","AMMA06",73547.000,"cc",28355.072,6.00,2835.507,1,6,0.100,36407.000,0.200,27257.000,0.300,6532.000,0.500,2065.000,1.000,1285.000,5.000,1.000
"07/03/06","23:08:38","AMMA06",73428.000,"cc",28339.213,6.00,2833.921,1,6,0.100,36148.000,0.200,27523.000,0.300,6545.000,0.500,1892.000,1.000,1318.000,5.000,2.000
"07/03/06","23:08:44","AMMA06",73039.000,"cc",28344.586,6.00,2834.459,1,6,0.100,35963.000,0.200,27414.000,0.300,6365.000,0.500,1965.000,1.000,1330.000,5.000,2.000
"07/03/06","23:08:50","AMMA06",73252.000,"cc",28282.508,6.00,2828.251,1,6,0.100,35864.000,0.200,27722.000,0.300,6440.000,0.500,1958.000,1.000,1267.000,5.000,1.000
"07/03/06","23:08:56","AMMA06",73203.000,"cc",28311.445,6.00,2831.145,1,6,0.100,35806.000,0.200,27665.000,0.300,6423.000,0.500,1962.000,1.000,1346.000,5.000,1.000
"07/03/06","23:09:02","AMMA06",73444.000,"cc",28328.111,6.00,2832.811,1,6,0.100,35843.000,0.200,27842.000,0.300,6478.000,0.500,1978.000,1.000,1303.000,5.000,0
"07/03/06","23:09:08","AMMA06",73294.000,"cc",28310.348,6.00,2831.035,1,6,0.100,35756.000,0.200,27769.000,0.300,6495.000,0.500,2017.000,1.000,1254.000,5.000,3.000
"07/03/06","23:09:14","AMMA06",73058.000,"cc",28319.658,6.00,2831.966,1,6,0.100,35708.000,0.200,27495.000,0.300,6491.000,0.500,2059.000,1.000,1301.000,5.000,4.000
"07/03/06","23:09:20","AMMA06",72965.000,"cc",28322.887,6.00,2832.289,1,6,0.100,35726.000,0.200,27685.000,0.300,6416.000,0.500,1934.000,1.000,1203.000,5.000,1.000
"07/03/06","23:09:26","AMMA06",73443.000,"cc",28315.660,6.00,2831.566,1,6,0.100,35791.000,0.200,27818.000,0.300,6482.000,0.500,1961.000,1.000,1389.000,5.000,2.000
"07/03/06","23:09:32","AMMA06",73024.000,"cc",28333.725,6.00,2833.373,1,6,0.100,35779.000,0.200,27610.000,0.300,6476.000,0.500,1942.000,1.000,1217.000,5.000,0
"07/03/06","23:09:38","AMMA06",73061.000,"cc",28314.848,6.00,2831.485,1,6,0.100,35625.000,0.200,27631.000,0.300,6514.000,0.500,1963.000,1.000,1328.000,5.000,0
"07/03/06","23:09:44","AMMA06",73398.000,"cc",28276.293,6.00,2827.629,1,6,0.100,36059.000,0.200,27626.000,0.300,6536.000,0.500,1873.000,1.000,1304.000,5.000,0
"07/03/06","23:09:50","AMMA06",72960.000,"cc",28347.701,6.00,2834.770,1,6,0.100,35464.000,0.200,27719.000,0.300,6484.000,0.500,1943.000,1.000,1348.000,5.000,2.000
"07/03/06","23:09:56","AMMA06",73644.000,"cc",28307.475,6.00,2830.748,1,6,0.100,36013.000,0.200,27713.000,0.300,6616.000,0.500,1970.000,1.000,1330.000,5.000,2.000
"07/03/06","23:10:02","AMMA06",73573.000,"cc",28358.984,6.00,2835.899,1,6,0.100,36061.000,0.200,27660.000,0.300,6602.000,0.500,1943.000,1.000,1307.000,5.000,0
"07/03/06","23:10:08","AMMA06",73230.000,"cc",28336.201,6.00,2833.620,1,6,0.100,35452.000,0.200,28128.000,0.300,6415.000,0.500,1920.000,1.000,1313.000,5.000,2.000
"07/03/06","23:10:14","AMMA06",73066.000,"cc",28267.441,6.00,2826.744,1,6,0.100,35386.000,0.200,27832.000,0.300,6535.000,0.500,1996.000,1.000,1315.000,5.000,2.000
"07/03/06","23:10:20","AMMA06",73547.000,"cc",28319.695,6.00,2831.970,1,6,0.100,35870.000,0.200,28026.000,0.300,6517.000,0.500,1847.000,1.000,1285.000,5.000,2.000
"07/03/06","23:10:26","AMMA06",73293.000,"cc",28302.811,6.00,2830.281,1,6,0.100,35725.000,0.200,27850.000,0.300,6471.000,0.500,1994.000,1.000,1252.000,5.000,1.000
"07/03/06","23:10:32","AMMA06",73211.000,"cc",28318.955,6.00,2831.896,1,6,0.100,35662.000,0.200,27772.000,0.300,6566.000,0.500,1907.000,1.000,1302.000,5.000,2.000
"07/03/06","23:10:38","AMMA06",73790.000,"cc",28355.641,6.00,2835.564,1,6,0.100,35929.000,0.200,28103.000,0.300,6545.000,0.500,1909.000,1.000,1303.000,5.000,1.000
"07/03/06","23:10:44","AMMA06",73475.000,"cc",28295.570,6.00,2829.557,1,6,0.100,35638.000,0.200,28021.000,0.300,6538.000,0.500,1912.000,1.000,1364.000,5.000,2.000
"07/03/06","23:10:50","AMMA06",73069.000,"cc",28290.180,6.00,2829.018,1,6,0.100,35414.000,0.200,27799.000,0.300,6621.000,0.500,1890.000,1.000,1344.000,5.000,1.000
"07/03/06","23:10:56","AMMA06",72632.000,"cc",28320.023,6.00,2832.002,1,6,0.100,35341.000,0.200,27701.000,0.300,6445.000,0.500,1905.000,1.000,1239.000,5.000,1.000
"07/03/06","23:11:02","AMMA06",73213.000,"cc",28288.787,6.00,2828.879,1,6,0.100,35707.000,0.200,27885.000,0.300,6517.000,0.500,1883.000,1.000,1218.000,5.000,3.000
"07/03/06","23:11:08","AMMA06",73221.000,"cc",28308.816,6.00,2830.882,1,6,0.100,35536.000,0.200,27876.000,0.300,6617.000,0.500,1918.000,1.000,1273.000,5.000,1.000
"07/03/06","23:11:14","AMMA06",72819.000,"cc",28305.037,6.00,2830.504,1,6,0.100,35425.000,0.200,27716.000,0.300,6388.000,0.500,1927.000,1.000,1361.000,5.000,2.000
"07/03/06","23:11:20","AMMA06",72712.000,"cc",28351.602,6.00,2835.160,1,6,0.100,35202.000,0.200,27800.000,0.300,6535.000,0.500,1867.000,1.000,1307.000,5.000,1.000
"07/03/06","23:11:26","AMMA06",72936.000,"cc",28333.725,6.00,2833.373,1,6,0.100,35302.000,0.200,27712.000,0.300,6671.000,0.500,1974.000,1.000,1274.000,5.000,3.000
"07/03/06","23:11:32","AMMA06",73042.000,"cc",28281.834,6.00,2828.184,1,6,0.100,35283.000,0.200,28016.000,0.300,6558.000,0.500,1883.000,1.000,1301.000,5.000,1.000
"07/03/06","23:11:38","AMMA06",73430.000,"cc",28321.641,6.00,2832.164,1,6,0.100,35326.000,0.200,28266.000,0.300,6589.000,0.500,1914.000,1.000,1334.000,5.000,1.000
"07/03/06","23:11:44","AMMA06",73457.000,"cc",28331.344,6.00,2833.135,1,6,0.100,35677.000,0.200,27974.000,0.300,6598.000,0.500,1927.000,1.000,1280.000,5.000,1.000
"07/03/06","23:11:50","AMMA06",73123.000,"cc",28336.717,6.00,2833.672,1,6,0.100,35496.000,0.200,27856.000,0.300,6603.000,0.500,1939.000,1.000,1223.000,5.000,6.000
"07/03/06","23:11:56","AMMA06",73432.000,"cc",28306.719,6.00,2830.672,1,6,0.100,35466.000,0.200,28197.000,0.300,6498.000,0.500,1946.000,1.000,1325.000,5.000,0
"07/03/06","23:12:02","AMMA06",73475.000,"cc",28322.488,6.00,2832.249,1,6,0.100,35510.000,0.200,28102.000,0.300,6597.000,0.500,1957.000,1.000,1307.000,5.000,2.000
"07/03/06","23:12:08","AMMA06",73275.000,"cc",28283.008,6.00,2828.301,1,6,0.100,35465.000,0.200,28055.000,0.300,6563.000,0.500,1913.000,1.000,1273.000,5.000,6.000
"07/03/06","23:12:14","AMMA06",73368.000,"cc",28289.014,6.00,2828.902,1,6,0.100,35518.000,0.200,28052.000,0.300,6527.000,0.500,1943.000,1.000,1324.000,5.000,4.000
"07/03/06","23:12:20","AMMA06",73322.000,"cc",28380.440,6.00,2838.044,1,6,0.100,35680.000,0.200,27896.000,0.300,6503.000,0.500,1970.000,1.000,1270.000,5.000,3.000
"07/03/06","23:12:26","AMMA06",73379.000,"cc",28331.426,6.00,2833.143,1,6,0.100,35545.000,0.200,27938.000,0.300,6713.000,0.500,1856.000,1.000,1326.000,5.000,1.000
"07/03/06","23:12:32","AMMA06",73136.000,"cc",28276.367,6.00,2827.637,1,6,0.100,35464.000,0.200,27963.000,0.300,6573.000,0.500,1933.000,1.000,1201.000,5.000,2.000
"07/03/06","23:12:38","AMMA06",73018.000,"cc",28305.854,6.00,2830.585,1,6,0.100,35221.000,0.200,27923.000,0.300,6571.000,0.500,1955.000,1.000,1345.000,5.000,3.000
"07/03/06","23:12:44","AMMA06",73351.000,"cc",28349.936,6.00,2834.994,1,6,0.100,35447.000,0.200,28028.000,0.300,6646.000,0.500,1951.000,1.000,1277.000,5.000,2.000
"07/03/06","23:12:50","AMMA06",72848.000,"cc",28297.869,6.00,2829.787,1,6,0.100,35084.000,0.200,27858.000,0.300,6604.000,0.500,1974.000,1.000,1327.000,5.000,1.000
"07/03/06","23:12:56","AMMA06",72989.000,"cc",28332.908,6.00,2833.291,1,6,0.100,35166.000,0.200,28136.000,0.300,6396.000,0.500,1954.000,1.000,1335.000,5.000,2.000
"07/03/06","23:13:02","AMMA06",72933.000,"cc",28290.938,6.00,2829.094,1,6,0.100,35028.000,0.200,28087.000,0.300,6554.000,0.500,1962.000,1.000,1302.000,5.000,0
"07/03/06","23:13:08","AMMA06",73208.000,"cc",28300.971,6.00,2830.097,1,6,0.100,35299.000,0.200,28143.000,0.300,6513.000,0.500,1951.000,1.000,1302.000,5.000,0
"07/03/06","23:13:14","AMMA06",72947.000,"cc",28322.369,6.00,2832.237,1,6,0.100,35125.000,0.200,27979.000,0.300,6630.000,0.500,1915.000,1.000,1294.000,5.000,4.000
"07/03/06","23:13:20","AMMA06",73157.000,"cc",28290.195,6.00,2829.020,1,6,0.100,35324.000,0.200,28101.000,0.300,6454.000,0.500,1961.000,1.000,1314.000,5.000,3.000
"07/03/06","23:13:26","AMMA06",73248.000,"cc",28320.213,6.00,2832.022,1,6,0.100,35749.000,0.200,27801.000,0.300,6444.000,0.500,1914.000,1.000,1336.000,5.000,4.000
"07/03/06","23:13:32","AMMA06",73407.000,"cc",28328.385,6.00,2832.839,1,6,0.100,35662.000,0.200,28020.000,0.300,6468.000,0.500,1951.000,1.000,1305.000,5.000,1.000
"07/03/06","23:13:38","AMMA06",72815.000,"cc",28364.315,6.00,2836.432,1,6,0.100,35353.000,0.200,28086.000,0.300,6214.000,0.500,1947.000,1.000,1214.000,5.000,1.000
"07/03/06","23:13:44","AMMA06",72587.000,"cc",28270.523,6.00,2827.053,1,6,0.100,35215.000,0.200,27931.000,0.300,6311.000,0.500,1880.000,1.000,1250.000,5.000,0